Regional & State Weather Roundups


839 
ASUS41 KPHI 220713
RWRPHI
REGIONAL WEATHER ROUNDUP
NATIONAL WEATHER SERVICE MOUNT HOLLY NJ
200 AM EST THU FEB 22 2018
NOTE:  "FAIR" INDICATES FEW OR NO CLOUDS BELOW 12,000 FEET WITH NO
SIGNIFICANT WEATHER AND/OR OBSTRUCTIONS TO VISIBILITY.
 * = STATION DOES NOT REPORT PRECIPITATION (E.G. RAIN, SNOW, ETC.) 
        OR FOG.
NJZ015>026-220800-
SOUTHERN NEW JERSEY
  
CITY           SKY/WX    TMP DP  RH WIND       PRES   REMARKS
POMONA         CLOUDY    61  55  81 N9        30.42R                  
WILDWOOD*      MOCLDY    61  59  93 N6        30.41R                  
MILLVILLE      CLOUDY    59  50  72 N9        30.43R                  
WRIGHTSTOWN    CLOUDY    56  45  67 N9        30.42R                  
MOUNT HOLLY    CLOUDY    56  44  64 N12       30.45R                  
TRENTON        CLOUDY    55  41  59 N8        30.45R                  
$$
NJZ001>014-220800-
NORTHERN NEW JERSEY
  
CITY           SKY/WX    TMP DP  RH WIND       PRES   REMARKS
SUSSEX         CLOUDY    47  36  65 NE5       30.48R                  
ANDOVER*         N/A     45  35  68 VRB5      30.48R                  
MORRISTOWN     CLOUDY    52  39  62 NW6       30.47R                  
NEWARK         CLOUDY    56  38  50 N13       30.45R                  
TETERBORO      CLOUDY    56  37  49 N9G20     30.44R                  
CALDWELL       CLOUDY    52  35  52 VRB6      30.48R                  
SOMERVILLE     CLOUDY    52  36  54 N9        30.45R                  
ALLAIRE*       CLOUDY    58  45  62 N8        30.45R                  
TOMS RIVER*    CLOUDY    59  50  72 N6        30.44R                  
$$
PAZ043-044-047-054-055-060>062-066>071-220800-
EASTERN PENNSYLVANIA
  
CITY           SKY/WX    TMP DP  RH WIND       PRES   REMARKS
PHILADELPHIA   CLOUDY    56  38  50 N14       30.45R                  
NORTH PHILA    CLOUDY    57  38  48 N12       30.45S                  
BLUE BELL*     CLOUDY    52  37  58 N5        30.47S                  
DOYLESTOWN     CLOUDY    52  36  54 N5        30.45R                  
QUAKERTOWN*    CLOUDY    50  30  46 N6        30.48R                  
PERKASIE*      CLOUDY    50  28  43 N7        30.47S                  
POTTSTOWN      CLOUDY    51  37  58 N7        30.49R                  
LANCASTER      CLOUDY    51  37  58 NE8       30.47S                  
COATESVILLE    CLOUDY    52 N/A N/A N9        30.47R                  
READING        CLOUDY    50  37  61 NW6       30.48R                  
ALLENTOWN      CLOUDY    51  32  48 NE5       30.48R                  
MOUNT POCONO   NOT AVBL                                               
HAZLETON       CLOUDY    37  34  87 N12G17    30.52R WCI  30          
LEHIGHTON      CLOUDY    45  32  61 N5        30.52R                  
WILKES BARRE   CLOUDY    40  33  76 N10       30.53R WCI  33          
$$
DEZALL-MDZ008-012-015-019-020-220800-
DELAWARE AND EASTERN MARYLAND
  
CITY           SKY/WX    TMP DP  RH WIND       PRES   REMARKS
WILMINGTON     CLOUDY    57  49  74 N10       30.45R                  
DOVER          CLOUDY    61  55  82 N13       30.41R                  
GEORGETOWN     MOCLDY    65  61  87 VRB3      30.40R                  
EASTON         MOCLDY    65  61  86 CALM      30.43R                  
ABERDEEN       CLOUDY   N/A N/A N/A N9        30.45                   
PATUXENT       CLOUDY    59  58  96 E5        30.38                   
OCEAN CITY     FAIR      55  54  96 SW3       30.40R                  
WALLOPS ISLAND FAIR     N/A N/A N/A CALM      30.41R                  
CAMBRIDGE      CLOUDY    63  61  94 CALM      30.39S                  
SALISBURY      FAIR      61  60  97 CALM      30.39R                  
$$
PAZ001-021-NYZ056-072-MDZ011-DCZ001-220800-
OTHER NEARBY LOCATIONS
  
CITY           SKY/WX    TMP DP  RH WIND       PRES   REMARKS
HARRISBURG     CLOUDY    49  40  71 N7        30.48S                  
STATE COLLEGE  CLOUDY    43  27  52 NE8       30.51S                  
WILLIAMSPORT   CLOUDY    44  29  55 N5        30.52F                  
BINGHAMTON     CLOUDY    32  27  81 N9        30.53F WCI  24          
NEW YORK CITY  CLOUDY    56  32  40 NE10G23   30.47R                  
BALTIMORE      MOCLDY    60  51  72 NE12      30.42R                  
WASHINGTON DC  MOCLDY    67  60  78 N9        30.39R                  
$$